Regional Weather Roundup
Issued by NWS

Home | Current Version | Previous Version | Graphics & Text | Print | Product List | Glossary Off
Versions: 1 2 3 4 5 6 7 8 9 10 11 12 13 14 15 16 17 18 19 20 21 22 23 24 25 26 27

000
ASUS45 KBOU 300707
RWRCO

WEATHER ROUNDUP FOR COLORADO
NATIONAL WEATHER SERVICE DENVER/BOULDER CO
100 AM MDT TUE AUG 30 2016

NOTE: "FAIR" INDICATES FEW OR NO CLOUDS BELOW 12000 FEET WITH NO
SIGNIFICANT WEATHER AND/OR OBSTRUCTIONS TO VISIBILITY.

COZ001>005-013-030-031-300800-
...NORTHWEST COLORADO...

CITY           SKY/WX    TMP DP  RH WIND       PRES   REMARKS
CRAIG          FAIR      59  38  45 E3        30.37S
HAYDEN         FAIR      55  36  47 E6        30.39S
MEEKER         FAIR      51  41  68 E5        30.37S
MOUNT WERNER   NOT AVBL
STEAMBOAT SPGS FAIR      55  38  52 CALM      30.42S
WALDEN         FAIR      41  32  70 SE9       30.52S
$$

COZ006>008-011-300800-
...WEST CENTRAL VALLEYS...

CITY           SKY/WX    TMP DP  RH WIND       PRES   REMARKS
GRAND JUNCTION FAIR      66  44  45 E12       30.26S
MONTROSE       FAIR      60  44  55 SE6       30.34S
EAGLE          FAIR      48  43  81 CALM      30.44S
RIFLE          FAIR      56  45  66 SE5       30.33R
DELTA          FAIR      61  46  58 NE6       30.30F
NUCLA          FAIR     N/A N/A N/A SE9       30.35S
$$

COZ017>023-064>068-300800-
...SOUTHWEST COLORADO...

CITY           SKY/WX    TMP DP  RH WIND       PRES   REMARKS
DURANGO        MOCLDY    53  45  74 N7        30.39R
CORTEZ         CLOUDY    57  50  77 SE3       30.31S
PAGOSA SPRINGS FAIR      51  42  70 CALM      30.45R
TELLURIDE      FAIR      47  40  77 SE9       30.53S
WOLF CREEK PAS FAIR      36  36 100 MISG      30.71S
$$

COZ009-010-012-014-032>034-037-058>063-300800-
...CENTRAL COLORADO...

CITY           SKY/WX    TMP DP  RH WIND       PRES   REMARKS
ASPEN          FAIR      44  40  85 SW7       30.46F
BUENA VISTA    FAIR      44  41  90 NW3       30.53S
COPPER MTN     FAIR      45  32  61 SE10      30.71F
BERTHOUD PASS  FAIR      36  23  60 E14       30.74S
COTTONWOOD PAS FAIR      48  37  66 CALM      30.61R
GUNNISON       FAIR      46  39  76 N8        30.51R
KREMMLING      FAIR      43  37  81 CALM      30.49S
LEADVILLE      FAIR      35  34  96 E5        30.59F WCI  31
MONARCH PASS   FAIR      36  34  93 E17       30.79S
SALIDA         FAIR      46  44  91 W5        30.58S
SUNLIGHT       FAIR      45  37  76 W7        30.66S
WILKERSON PASS MOCLDY    41  34  75 CALM      30.70S
$$

COZ069>075-300800-
...SAN LUIS VALLEY/SANGRE DE CRISTO MOUNTAINS...

CITY           SKY/WX    TMP DP  RH WIND       PRES   REMARKS
ALAMOSA        FAIR      44  41  89 E3        30.46S
LA VETA PASS   MOCLDY    45  37  76 NE6       30.61S
SAGUACHE       FAIR      46  45  93 NW7       30.48S
$$

COZ035-036-038>040-300800-
...NORTHERN COLORADO FRONT RANGE...

CITY           SKY/WX    TMP DP  RH WIND       PRES   REMARKS
DENVER INTL AP MOCLDY    57  49  74 N7        30.35R
DMNS CITY PARK   N/A     58  49  72 E8        30.34S
AURORA         MOCLDY    57  48  71 SW7       30.36S
FRONT RANGE AP NOT AVBL
ERIE MUNI ARPT FAIR      59  51  75 CALM      30.33S
BOULDER MUN AP FAIR      63  46  55 SW3       30.33S
CENTENNIAL     MOCLDY    56  46  69 SW6       30.37S
BROOMFIELD     FAIR      59  46  63 CALM      30.36R
FORT COLLINS   FAIR      61  52  72 E5        30.32S
LONGMONT       FAIR      60  52  74 CALM      30.34S
$$

COZ041-046-047-076>085-087-088-300800-
...PIKES PEAK/PALMER DIVIDE AND SOUTHERN FOOTHILLS...

CITY           SKY/WX    TMP DP  RH WIND       PRES   REMARKS
COLO. SPRINGS  MOCLDY    56  49  77 W7        30.40S
A. F. ACADEMY  FAIR      50  47  90 N7        30.41S
SCHRIEVER AFB  NOT AVBL
ELLICOTT       NOT AVBL
FALCON         CLOUDY    55  44  66 NW8       30.44S
FORT CARSON    CLOUDY    58  48  70 NW5       30.37S
LIMON          MOCLDY    54  50  86 NW3       30.35S
MONUMENT HILL  MOCLDY    50  45  81 SW9       30.45S
TRINIDAD       CLOUDY    57  52  83 W10       30.38S
$$

COZ042>045-048>051-090-091-300800-
...NORTHEAST COLORADO...

CITY           SKY/WX    TMP DP  RH WIND       PRES   REMARKS
GREELEY ARPT   FAIR      61  54  77 CALM      30.32S
AKRON          FAIR      61  52  72 SW3       30.31R
BURLINGTON     MOCLDY    61  58  90 S6        30.30S
WRAY           NOT AVBL
STERLING       FAIR      61  57  88 N5        30.26S
HOLYOKE        FAIR      64  61  88 S3        30.28S
FORT MORGAN    FAIR      60  53  76 CALM      30.30S
$$

COZ086-089-092>099-300800-
...SOUTHEAST COLORADO...

CITY           SKY/WX    TMP DP  RH WIND       PRES   REMARKS
PUEBLO         CLOUDY    63  52  67 W3        30.32S
LA JUNTA       CLOUDY    64  54  69 W8        30.28F
LAMAR          FAIR      61  59  93 E5        30.26S
SPRINGFIELD      N/A     62  61  96 S7        30.29F
$$




USA.gov is the U.S. government's official web portal to all federal, state and local government web resources and services.